| time (UTC) | temp F | wind direction | speed MPH | gust MPH | rain 1hr in | rain 24hr in | rain mn in | humidity % | barometer mb |
| 20260504022531 | 72 | 17 | 0.0 | 10.0 | 0.00 | 0.00 | 0.00 | 44 | 1016.5 |
| 20260504021831 | 72 | 7 | 2.0 | 10.0 | 0.00 | 0.00 | 0.00 | 44 | 1016.2 |
| 20260504021131 | 72 | 0 | 2.0 | 10.0 | 0.00 | 0.00 | 0.00 | 44 | 1016.5 |
| 20260504015731 | 73 | 17 | 5.0 | 10.0 | 0.00 | 0.00 | 0.00 | 43 | 1016.5 |
| 20260504015030 | 73 | 16 | 0.0 | 10.0 | 0.00 | 0.00 | 0.00 | 43 | 1016.5 |
| 20260504014332 | 74 | 42 | 8.0 | 10.0 | 0.00 | 0.00 | 0.00 | 42 | 1016.2 |
| 20260504012930 | 74 | 4 | 2.0 | 8.0 | 0.00 | 0.00 | 0.00 | 42 | 1015.8 |
| 20260504012231 | 75 | 2 | 0.0 | 8.0 | 0.00 | 0.00 | 0.00 | 41 | 1016.2 |
| 20260504010832 | 75 | 9 | 2.0 | 8.0 | 0.00 | 0.00 | 0.00 | 41 | 1016.2 |
| 20260504010131 | 75 | 11 | 0.0 | 8.0 | 0.00 | 0.00 | 0.00 | 40 | 1016.2 |
| 20260504004731 | 76 | 4 | 5.0 | 12.0 | 0.00 | 0.00 | 0.00 | 39 | 1016.2 |
| 20260504004031 | 77 | 9 | 2.0 | 17.0 | 0.00 | 0.00 | 0.00 | 38 | 1016.2 |
| 20260504003331 | 77 | 24 | 2.0 | 17.0 | 0.00 | 0.00 | 0.00 | 38 | 1016.2 |
| 20260504002631 | 77 | 112 | 11.0 | 17.0 | 0.00 | 0.00 | 0.00 | 37 | 1016.2 |
| 20260504001930 | 78 | 9 | 0.0 | 17.0 | 0.00 | 0.00 | 0.00 | 37 | 1015.8 |
| 20260504001232 | 78 | 352 | 5.0 | 17.0 | 0.00 | 0.00 | 0.00 | 36 | 1016.2 |
| 20260504000531 | 78 | 11 | 5.0 | 17.0 | 0.00 | 0.00 | 0.00 | 36 | 1016.2 |
| 20260503235832 | 78 | 38 | 2.0 | 17.0 | 0.00 | 0.00 | 0.00 | 36 | 1016.2 |
| 20260503235133 | 79 | 355 | 5.0 | 17.0 | 0.00 | 0.00 | 0.00 | 36 | 1016.2 |
| 20260503234433 | 79 | 30 | 8.0 | 12.0 | 0.00 | 0.00 | 0.00 | 36 | 1016.5 |
| 20260503233735 | 79 | 352 | 5.0 | 12.0 | 0.00 | 0.00 | 0.00 | 37 | 1016.2 |
| 20260503233033 | 79 | 13 | 2.0 | 12.0 | 0.00 | 0.00 | 0.00 | 36 | 1016.5 |
| 20260503232333 | 79 | 26 | 8.0 | 10.0 | 0.00 | 0.00 | 0.00 | 37 | 1016.8 |
| 20260503230933 | 80 | 54 | 8.0 | 10.0 | 0.00 | 0.00 | 0.00 | 36 | 1016.5 |
| 20260503230233 | 80 | 7 | 2.0 | 10.0 | 0.00 | 0.00 | 0.00 | 36 | 1016.2 |
| 20260503225533 | 80 | 19 | 5.0 | 14.0 | 0.00 | 0.00 | 0.00 | 36 | 1016.5 |
| 20260503224833 | 80 | 340 | 5.0 | 14.0 | 0.00 | 0.00 | 0.00 | 35 | 1016.5 |
| 20260503224133 | 81 | 27 | 11.0 | 14.0 | 0.00 | 0.00 | 0.00 | 36 | 1016.8 |
| 20260503223433 | 81 | 12 | 5.0 | 14.0 | 0.00 | 0.00 | 0.00 | 36 | 1016.8 |
| 20260503222733 | 81 | 338 | 8.0 | 14.0 | 0.00 | 0.00 | 0.00 | 35 | 1016.8 |
| 20260503222033 | 81 | 48 | 5.0 | 14.0 | 0.00 | 0.00 | 0.00 | 35 | 1016.8 |
| 20260503221333 | 82 | 6 | 8.0 | 14.0 | 0.00 | 0.00 | 0.00 | 34 | 1017.2 |
| 20260503220633 | 82 | 11 | 5.0 | 12.0 | 0.00 | 0.00 | 0.00 | 34 | 1017.2 |
| 20260503215933 | 83 | 27 | 2.0 | 19.0 | 0.00 | 0.00 | 0.00 | 34 | 1017.2 |
| 20260503215233 | 83 | 15 | 8.0 | 19.0 | 0.00 | 0.00 | 0.00 | 34 | 1017.2 |
| 20260503214533 | 84 | 11 | 5.0 | 19.0 | 0.00 | 0.00 | 0.00 | 34 | 1017.2 |
| 20260503213133 | 84 | 21 | 5.0 | 19.0 | 0.00 | 0.00 | 0.00 | 33 | 1017.5 |
| 20260503211734 | 84 | 354 | 5.0 | 19.0 | 0.00 | 0.00 | 0.00 | 34 | 1017.5 |
| 20260503211033 | 84 | 217 | 25.0 | 19.0 | 0.00 | 0.00 | 0.00 | 33 | 1017.5 |
| 20260503210333 | 84 | 87 | 8.0 | 12.0 | 0.00 | 0.00 | 0.00 | 33 | 1017.9 |
| 20260503205633 | 85 | 96 | 11.0 | 12.0 | 0.00 | 0.00 | 0.00 | 35 | 1017.9 |
| 20260503204933 | 85 | 16 | 2.0 | 10.0 | 0.00 | 0.00 | 0.00 | 34 | 1018.2 |
| 20260503203533 | 85 | 19 | 2.0 | 10.0 | 0.00 | 0.00 | 0.00 | 35 | 1018.5 |
| 20260503202833 | 85 | 341 | 5.0 | 10.0 | 0.00 | 0.00 | 0.00 | 35 | 1018.5 |
| 20260503202132 | 85 | 5 | 2.0 | 10.0 | 0.00 | 0.00 | 0.00 | 34 | 1018.5 |
| 20260503201433 | 85 | 58 | 8.0 | 10.0 | 0.00 | 0.00 | 0.00 | 34 | 1018.5 |
| 20260503200033 | 84 | 348 | 14.0 | 10.0 | 0.00 | 0.00 | 0.00 | 33 | 1018.5 |
| 20260503195333 | 84 | 87 | 11.0 | 10.0 | 0.00 | 0.00 | 0.00 | 34 | 1019.2 |
| 20260503194633 | 84 | 6 | 5.0 | 10.0 | 0.00 | 0.00 | 0.00 | 34 | 1019.2 |
| 20260503193932 | 84 | 12 | 2.0 | 10.0 | 0.00 | 0.00 | 0.00 | 35 | 1019.2 |
| 20260503193233 | 84 | 11 | 2.0 | 10.0 | 0.00 | 0.00 | 0.00 | 36 | 1019.6 |
| 20260503192532 | 84 | 351 | 5.0 | 10.0 | 0.00 | 0.00 | 0.00 | 35 | 1019.6 |
| 20260503191833 | 84 | 359 | 5.0 | 10.0 | 0.00 | 0.00 | 0.00 | 37 | 1019.6 |
| 20260503191132 | 84 | 11 | 0.0 | 10.0 | 0.00 | 0.00 | 0.00 | 36 | 1019.6 |
| 20260503185733 | 84 | 16 | 2.0 | 8.0 | 0.00 | 0.00 | 0.00 | 37 | 1019.9 |
| 20260503184334 | 84 | 8 | 2.0 | 12.0 | 0.00 | 0.00 | 0.00 | 36 | 1019.9 |
| 20260503183633 | 83 | 25 | 2.0 | 12.0 | 0.00 | 0.00 | 0.00 | 37 | 1020.2 |
| 20260503182933 | 83 | 354 | 5.0 | 12.0 | 0.00 | 0.00 | 0.00 | 38 | 1020.2 |
| 20260503182233 | 83 | 12 | 2.0 | 12.0 | 0.00 | 0.00 | 0.00 | 39 | 1020.2 |
| 20260503181533 | 82 | 2 | 5.0 | 12.0 | 0.00 | 0.00 | 0.00 | 39 | 1020.6 |
| 20260503180833 | 82 | 27 | 8.0 | 12.0 | 0.00 | 0.00 | 0.00 | 42 | 1020.9 |
| 20260503180133 | 82 | 59 | 8.0 | 12.0 | 0.00 | 0.00 | 0.00 | 40 | 1020.9 |
| 20260503175433 | 82 | 33 | 2.0 | 12.0 | 0.00 | 0.00 | 0.00 | 40 | 1020.9 |
| 20260503174733 | 82 | 11 | 0.0 | 10.0 | 0.00 | 0.00 | 0.00 | 42 | 1020.9 |
| 20260503174034 | 82 | 66 | 5.0 | 10.0 | 0.00 | 0.00 | 0.00 | 42 | 1020.9 |
| 20260503173337 | 82 | 33 | 5.0 | 10.0 | 0.00 | 0.00 | 0.00 | 43 | 1021.2 |
| 20260503172633 | 82 | 8 | 0.0 | 10.0 | 0.00 | 0.00 | 0.00 | 43 | 1021.2 |
| 20260503171940 | 81 | 4 | 2.0 | 10.0 | 0.00 | 0.00 | 0.00 | 43 | 1021.6 |
| 20260503150632 | 73 | 355 | 2.0 | 6.0 | 0.00 | 0.00 | 0.00 | 55 | 1021.9 |
| 20260503130732 | 59 | 7 | 0.0 | 0.0 | 0.00 | 0.00 | 0.00 | 74 | 1021.9 |
| 20260503110332 | 56 | 13 | 0.0 | 2.0 | 0.00 | 0.00 | 0.00 | 69 | 1020.9 |
| 20260503081531 | 57 | 12 | 0.0 | 2.0 | 0.00 | 0.00 | 0.00 | 68 | 1020.2 |
| 20260503080131 | 57 | 6 | 0.0 | 0.0 | 0.00 | 0.00 | 0.00 | 69 | 1020.2 |
| 20260503072631 | 57 | 14 | 0.0 | 0.0 | 0.00 | 0.00 | 0.00 | 69 | 1020.9 |
| 20260503071931 | 57 | 14 | 0.0 | 0.0 | 0.00 | 0.00 | 0.00 | 69 | 1020.9 |
| 20260503071231 | 57 | 14 | 0.0 | 0.0 | 0.00 | 0.00 | 0.00 | 68 | 1020.9 |
| 20260503070531 | 57 | 14 | 0.0 | 0.0 | 0.00 | 0.00 | 0.00 | 68 | 1020.9 |
| 20260503054831 | 59 | 14 | 0.0 | 0.0 | 0.00 | 0.00 | 0.00 | 64 | 1020.6 |
| 20260503054131 | 59 | 14 | 0.0 | 0.0 | 0.00 | 0.00 | 0.00 | 64 | 1020.9 |
| 20260503053431 | 60 | 14 | 0.0 | 0.0 | 0.00 | 0.00 | 0.00 | 64 | 1020.9 |
| 20260503052731 | 60 | 14 | 0.0 | 0.0 | 0.00 | 0.00 | 0.00 | 64 | 1020.9 |
| 20260503052031 | 60 | 14 | 0.0 | 0.0 | 0.00 | 0.00 | 0.00 | 63 | 1020.6 |
| 20260503051331 | 60 | 14 | 0.0 | 0.0 | 0.00 | 0.00 | 0.00 | 63 | 1020.6 |
| 20260503050631 | 60 | 14 | 0.0 | 0.0 | 0.00 | 0.00 | 0.00 | 62 | 1020.2 |
| 20260503045231 | 61 | 14 | 0.0 | 0.0 | 0.00 | 0.00 | 0.00 | 61 | 1020.2 |
| 20260503043831 | 61 | 12 | 0.0 | 0.0 | 0.00 | 0.00 | 0.00 | 60 | 1020.6 |
| 20260503042431 | 62 | 9 | 0.0 | 0.0 | 0.00 | 0.00 | 0.00 | 59 | 1020.6 |
| 20260503041731 | 62 | 9 | 0.0 | 0.0 | 0.00 | 0.00 | 0.00 | 59 | 1020.6 |
| 20260503041031 | 62 | 11 | 0.0 | 0.0 | 0.00 | 0.00 | 0.00 | 59 | 1020.6 |
| 20260503040331 | 62 | 12 | 0.0 | 0.0 | 0.00 | 0.00 | 0.00 | 58 | 1020.2 |
| 20260503035631 | 62 | 12 | 0.0 | 0.0 | 0.00 | 0.00 | 0.00 | 57 | 1020.6 |
| 20260503034931 | 62 | 11 | 0.0 | 0.0 | 0.00 | 0.00 | 0.00 | 57 | 1020.6 |
| 20260503034231 | 63 | 12 | 0.0 | 0.0 | 0.00 | 0.00 | 0.00 | 56 | 1020.6 |
| 20260503032831 | 63 | 11 | 0.0 | 0.0 | 0.00 | 0.00 | 0.00 | 55 | 1020.2 |
| 20260503031431 | 63 | 12 | 0.0 | 0.0 | 0.00 | 0.00 | 0.00 | 55 | 1020.2 |
| 20260503030031 | 63 | 12 | 0.0 | 2.0 | 0.00 | 0.00 | 0.00 | 54 | 1020.2 |
| 20260503024631 | 64 | 12 | 0.0 | 2.0 | 0.00 | 0.00 | 0.00 | 53 | 1020.2 |
| 20260503023931 | 64 | 12 | 0.0 | 2.0 | 0.00 | 0.00 | 0.00 | 53 | 1020.2 |
| 20260503023231 | 65 | 12 | 0.0 | 2.0 | 0.00 | 0.00 | 0.00 | 52 | 1019.9 |